LA5NNA Weather Reports


Display with metric or nautical units.
time (UTC)temp
F
wind
direction
speed
MPH
gust
MPH
rain 1hr
in
rain 24hr
in
rain mn
in
humidity
%
barometer
mb
20260507213011 47 74 3.0 5.0 0.00 0.00 0.00 68 1018.0
20260507212507 47 79 3.0 5.0 0.00 0.00 0.00 68 1018.1
20260507212008 47 93 2.0 5.0 0.00 0.00 0.00 68 1017.9
20260507211507 47 72 2.0 5.0 0.00 0.00 0.00 68 1018.0
20260507211007 47 63 2.0 5.0 0.00 0.00 0.00 68 1017.9
20260507210507 47 75 2.0 5.0 0.00 0.00 0.00 68 1017.8
20260507210011 47 72 3.0 5.0 0.00 0.00 0.00 68 1017.8
20260507205507 47 76 3.0 5.0 0.00 0.00 0.00 68 1017.8
20260507205007 48 73 2.0 5.0 0.00 0.00 0.00 68 1017.8
20260507204507 48 68 2.0 5.0 0.00 0.00 0.00 68 1017.7
20260507204008 48 75 2.0 3.0 0.00 0.00 0.00 68 1017.8
20260507203507 48 104 2.0 5.0 0.00 0.00 0.00 68 1017.7
20260507202508 48 120 2.0 5.0 0.00 0.00 0.00 68 1017.6
20260507201505 48 103 2.0 5.0 0.00 0.00 0.00 68 1017.6
20260507201008 48 123 2.0 5.0 0.00 0.00 0.00 68 1017.6
20260507200508 48 146 2.0 5.0 0.00 0.00 0.00 68 1017.5
20260507200011 48 92 2.0 6.0 0.00 0.00 0.00 68 1017.5
20260507195508 48 103 2.0 5.0 0.00 0.00 0.00 69 1017.6
20260507195007 48 142 2.0 5.0 0.00 0.00 0.00 69 1017.6
20260507194507 48 112 2.0 6.0 0.00 0.00 0.00 69 1017.5
20260507194007 48 85 2.0 5.0 0.00 0.00 0.00 69 1017.5
20260507193507 48 101 3.0 6.0 0.00 0.00 0.00 69 1017.3
20260507193011 48 117 3.0 7.0 0.00 0.00 0.00 69 1017.3
20260507192507 48 127 3.0 6.0 0.00 0.00 0.00 69 1017.2
20260507192007 48 101 3.0 6.0 0.00 0.00 0.00 68 1017.1
20260507191507 48 105 3.0 6.0 0.00 0.00 0.00 68 1017.0
20260507191007 48 138 3.0 7.0 0.00 0.00 0.00 68 1017.0
20260507190507 48 115 3.0 7.0 0.00 0.00 0.00 68 1016.9
20260507190011 48 124 2.0 7.0 0.00 0.00 0.00 68 1016.8
20260507185507 49 104 4.0 7.0 0.00 0.00 0.00 68 1016.8
20260507184508 49 111 5.0 9.0 0.00 0.00 0.00 68 1016.8
20260507184008 49 128 4.0 7.0 0.00 0.00 0.00 68 1016.8
20260507183507 49 128 3.0 8.0 0.00 0.00 0.00 68 1016.8
20260507183011 49 133 4.0 12.0 0.00 0.00 0.00 68 1016.9
20260507182007 49 146 6.0 12.0 0.00 0.00 0.00 67 1016.9
20260507181507 49 131 5.0 9.0 0.00 0.00 0.00 67 1016.8
20260507181007 49 106 5.0 9.0 0.00 0.00 0.00 67 1016.8
20260507180507 49 116 6.0 13.0 0.00 0.00 0.00 67 1016.8
20260507180010 49 126 3.0 8.0 0.00 0.00 0.00 67 1016.8
20260507175507 49 168 4.0 8.0 0.00 0.00 0.00 66 1016.8
20260507175007 49 177 6.0 10.0 0.00 0.00 0.00 66 1016.8
20260507174507 50 160 6.0 10.0 0.00 0.00 0.00 66 1016.8
20260507174007 50 182 6.0 14.0 0.00 0.00 0.00 66 1016.8
20260507173507 50 182 7.0 12.0 0.00 0.00 0.00 66 1016.8
20260507173011 50 184 6.0 12.0 0.00 0.00 0.00 66 1016.7
20260507172507 50 173 7.0 12.0 0.00 0.00 0.00 66 1016.8
20260507171507 50 172 7.0 13.0 0.00 0.00 0.00 66 1016.8
20260507170506 50 178 8.0 14.0 0.00 0.00 0.00 66 1016.7
20260507165507 50 179 6.0 14.0 0.00 0.00 0.00 65 1016.7
20260507165006 50 183 7.0 13.0 0.00 0.00 0.00 65 1016.8
20260507164506 50 182 7.0 13.0 0.00 0.00 0.00 65 1016.8
20260507164007 50 165 9.0 13.0 0.00 0.00 0.00 65 1016.8
20260507163507 50 187 8.0 12.0 0.00 0.00 0.00 64 1016.7
20260507163010 50 173 7.0 13.0 0.00 0.00 0.00 64 1016.7
20260507162507 50 178 7.0 13.0 0.00 0.00 0.00 63 1016.7
20260507162007 50 184 9.0 13.0 0.00 0.00 0.00 63 1016.6
20260507161506 50 182 8.0 14.0 0.00 0.00 0.00 63 1016.6
20260507160507 50 187 9.0 14.0 0.00 0.00 0.00 63 1016.6
20260507160010 50 184 9.0 14.0 0.00 0.00 0.00 63 1016.5
20260507155506 51 177 9.0 13.0 0.00 0.00 0.00 63 1016.5
20260507154507 51 187 9.0 14.0 0.00 0.00 0.00 63 1016.5
20260507154009 51 179 9.0 13.0 0.00 0.00 0.00 63 1016.5
20260507153507 51 181 9.0 14.0 0.00 0.00 0.00 62 1016.4
20260507152007 51 183 10.0 15.0 0.00 0.00 0.00 61 1016.5
20260507150507 52 184 9.0 14.0 0.00 0.00 0.00 59 1016.7
20260507150010 52 179 9.0 13.0 0.00 0.00 0.00 59 1016.6
20260507145506 53 182 10.0 13.0 0.00 0.00 0.00 59 1016.7
20260507144507 53 186 9.0 12.0 0.00 0.00 0.00 58 1016.7
20260507144006 53 186 7.0 12.0 0.00 0.00 0.00 57 1016.7
20260507143506 53 185 7.0 13.0 0.00 0.00 0.00 57 1016.7
20260507142507 53 166 7.0 14.0 0.00 0.00 0.00 57 1016.7
20260507142006 53 167 7.0 14.0 0.00 0.00 0.00 57 1016.6
20260507141507 53 167 8.0 14.0 0.00 0.00 0.00 57 1016.8
20260507140506 53 171 6.0 12.0 0.00 0.00 0.00 57 1016.7
20260507140011 54 156 9.0 15.0 0.00 0.00 0.00 57 1016.7
20260507135506 54 154 6.0 14.0 0.00 0.00 0.00 57 1016.7
20260507135007 54 170 8.0 13.0 0.00 0.00 0.00 56 1016.7
20260507134506 54 159 7.0 13.0 0.00 0.00 0.00 56 1016.7
20260507134006 54 158 8.0 13.0 0.00 0.00 0.00 56 1016.6
20260507133506 55 161 7.0 15.0 0.00 0.00 0.00 56 1016.7
20260507133011 55 173 7.0 16.0 0.00 0.00 0.00 56 1016.8
20260507132507 55 160 8.0 16.0 0.00 0.00 0.00 56 1016.8
20260507132006 55 171 7.0 13.0 0.00 0.00 0.00 56 1016.7
20260507131507 55 162 7.0 14.0 0.00 0.00 0.00 56 1016.7
20260507131007 55 171 7.0 13.0 0.00 0.00 0.00 56 1016.7
20260507130010 55 112 7.0 12.0 0.00 0.00 0.00 56 1016.7
20260507125506 55 128 5.0 15.0 0.00 0.00 0.00 56 1016.7
20260507125007 55 133 7.0 15.0 0.00 0.00 0.00 55 1016.7
20260507124507 55 170 7.0 14.0 0.00 0.00 0.00 55 1016.7
20260507124007 55 160 8.0 13.0 0.00 0.00 0.00 55 1016.8
20260507123506 55 101 5.0 12.0 0.00 0.00 0.00 56 1016.7
20260507123010 55 123 6.0 12.0 0.00 0.00 0.00 56 1016.7
20260507122007 55 146 7.0 12.0 0.00 0.00 0.00 56 1016.7
20260507121506 55 131 7.0 12.0 0.00 0.00 0.00 55 1016.7
20260507120506 55 106 7.0 12.0 0.00 0.00 0.00 56 1016.6
20260507120010 55 96 6.0 12.0 0.00 0.00 0.00 56 1016.5
20260507115507 54 99 6.0 12.0 0.00 0.00 0.00 55 1016.5
20260507115006 54 140 5.0 10.0 0.00 0.00 0.00 56 1016.6
20260507113506 54 139 5.0 14.0 0.00 0.00 0.00 55 1016.6
20260507113010 54 131 9.0 14.0 0.00 0.00 0.00 55 1016.6
20260507112506 54 124 7.0 12.0 0.00 0.00 0.00 55 1016.5
20260507112007 54 121 6.0 13.0 0.00 0.00 0.00 55 1016.5
20260507111507 54 150 10.0 14.0 0.00 0.00 0.00 55 1016.5
20260507111007 54 141 6.0 12.0 0.00 0.00 0.00 55 1016.4
20260507110507 54 156 7.0 13.0 0.00 0.00 0.00 55 1016.5
20260507110010 54 149 9.0 16.0 0.00 0.00 0.00 55 1016.5
20260507105507 53 116 7.0 15.0 0.00 0.00 0.00 55 1016.6
20260507104006 53 135 9.0 15.0 0.00 0.00 0.00 54 1016.3
20260507103506 53 141 7.0 15.0 0.00 0.00 0.00 55 1016.4
20260507103011 53 161 5.0 9.0 0.00 0.00 0.00 55 1016.3
20260507102506 53 138 8.0 15.0 0.00 0.00 0.00 55 1016.3
20260507102007 53 104 6.0 12.0 0.00 0.00 0.00 55 1016.3
20260507101507 53 100 3.0 10.0 0.00 0.00 0.00 54 1016.4
20260507101007 53 129 5.0 10.0 0.00 0.00 0.00 54 1016.4
20260507100506 52 143 6.0 10.0 0.00 0.00 0.00 54 1016.3
20260507100010 52 138 7.0 12.0 0.00 0.00 0.00 54 1016.3
20260507095507 52 137 4.0 10.0 0.00 0.00 0.00 54 1016.1
20260507095006 52 144 7.0 12.0 0.00 0.00 0.00 54 1016.2
20260507094506 52 154 6.0 13.0 0.00 0.00 0.00 54 1016.1
20260507094007 52 146 7.0 15.0 0.00 0.00 0.00 53 1016.1
20260507092506 52 110 7.0 12.0 0.00 0.00 0.00 52 1016.0
20260507091506 52 112 5.0 10.0 0.00 0.00 0.00 52 1016.0
20260507091007 51 147 5.0 12.0 0.00 0.00 0.00 51 1016.0
20260507090507 51 171 6.0 9.0 0.00 0.00 0.00 51 1015.9
20260507090010 51 156 7.0 12.0 0.00 0.00 0.00 52 1016.0
20260507085506 51 119 4.0 12.0 0.00 0.00 0.00 52 1015.9
20260507084006 50 77 6.0 9.0 0.00 0.00 0.00 52 1016.2
20260507083506 50 90 4.0 9.0 0.00 0.00 0.00 51 1016.1
20260507081006 49 122 4.0 8.0 0.00 0.00 0.00 51 1015.8
20260507080506 49 87 5.0 8.0 0.00 0.00 0.00 50 1015.9
20260507080010 49 83 5.0 9.0 0.00 0.00 0.00 50 1015.7
20260507075507 48 106 5.0 12.0 0.00 0.00 0.00 51 1015.7
20260507074509 47 95 4.0 9.0 0.00 0.00 0.00 53 1015.6
20260507074008 47 86 5.0 9.0 0.00 0.00 0.00 53 1015.7
20260507073012 46 110 4.0 10.0 0.00 0.00 0.00 54 1015.6
20260507072509 45 105 5.0 9.0 0.00 0.00 0.00 55 1015.6
20260507072009 45 118 5.0 8.0 0.00 0.00 0.00 56 1015.6
20260507071509 45 134 4.0 7.0 0.00 0.00 0.00 57 1015.4
20260507071009 44 158 3.0 6.0 0.00 0.00 0.00 58 1015.4
20260507070509 44 153 2.0 5.0 0.00 0.00 0.00 58 1015.4
20260507070013 44 76 3.0 6.0 0.00 0.00 0.00 58 1015.5
20260507065508 43 97 2.0 5.0 0.00 0.00 0.00 58 1015.5
20260507065009 43 98 2.0 6.0 0.00 0.00 0.00 58 1015.5
20260507064508 43 59 3.0 6.0 0.00 0.00 0.00 58 1015.5
20260507064009 42 68 4.0 8.0 0.00 0.00 0.00 58 1015.5
20260507063508 42 59 3.0 6.0 0.00 0.00 0.00 59 1015.4
20260507063012 42 47 3.0 7.0 0.00 0.00 0.00 60 1015.3
20260507062508 42 63 3.0 7.0 0.00 0.00 0.00 60 1015.3
20260507061508 42 58 3.0 8.0 0.00 0.00 0.00 60 1015.3
20260507061009 41 13 5.0 10.0 0.00 0.00 0.00 61 1015.2
20260507060508 41 15 3.0 8.0 0.00 0.00 0.00 61 1015.2
20260507060012 41 41 2.0 6.0 0.00 0.00 0.00 61 1015.2
20260507054508 40 52 2.0 5.0 0.00 0.00 0.00 61 1015.0
20260507053508 40 59 2.0 3.0 0.00 0.00 0.00 61 1015.2
20260507053012 40 96 1.0 2.0 0.00 0.00 0.00 61 1015.2
20260507052508 40 317 2.0 2.0 0.00 0.00 0.00 61 1015.2
20260507052008 40 5 1.0 2.0 0.00 0.00 0.00 61 1015.1
20260507050508 40 335 1.0 2.0 0.00 0.00 0.00 60 1015.0
20260507050012 40 322 1.0 2.0 0.00 0.00 0.00 60 1014.9
20260507045509 40 6 1.0 2.0 0.00 0.00 0.00 60 1014.8
20260507045008 40 351 2.0 2.0 0.00 0.00 0.00 60 1014.9
20260507044508 40 332 1.0 2.0 0.00 0.00 0.00 60 1014.8
20260507044008 40 67 0.0 1.0 0.00 0.00 0.00 60 1014.7
20260507043508 40 76 0.0 1.0 0.00 0.00 0.00 60 1014.8
20260507043012 40 69 1.0 1.0 0.00 0.00 0.00 60 1014.9
20260507042508 40 348 0.0 1.0 0.00 0.00 0.00 60 1014.7
20260507042008 40 323 0.0 1.0 0.00 0.00 0.00 60 1014.5
20260507041008 40 96 1.0 1.0 0.00 0.00 0.00 60 1014.5
20260507040508 40 104 0.0 1.0 0.00 0.00 0.00 60 1014.3
20260507035509 41 40 1.0 2.0 0.00 0.00 0.00 60 1014.5
20260507035008 41 60 1.0 1.0 0.00 0.00 0.00 60 1014.4
20260507034508 41 75 0.0 1.0 0.00 0.00 0.00 60 1014.3
20260507034008 41 272 0.0 1.0 0.00 0.00 0.00 59 1014.2
20260507033508 41 91 1.0 2.0 0.00 0.00 0.00 59 1014.1
20260507033012 41 22 1.0 2.0 0.00 0.00 0.00 59 1014.2
20260507032008 41 359 1.0 3.0 0.00 0.00 0.00 59 1013.9
20260507031508 41 59 1.0 3.0 0.00 0.00 0.00 59 1014.1
20260507031008 42 323 0.0 1.0 0.00 0.00 0.00 59 1014.0
20260507030508 42 106 1.0 1.0 0.00 0.00 0.00 59 1013.9
20260507030012 42 316 1.0 2.0 0.00 0.00 0.00 59 1013.9
20260507025507 42 14 2.0 3.0 0.00 0.00 0.00 59 1013.9
20260507025008 42 9 3.0 7.0 0.00 0.00 0.00 59 1013.8
20260507024508 42 355 3.0 7.0 0.00 0.00 0.00 59 1013.8
20260507024008 42 17 5.0 8.0 0.00 0.00 0.00 59 1013.8
20260507023508 42 5 2.0 6.0 0.00 0.00 0.00 59 1013.8
20260507023011 42 3 2.0 6.0 0.00 0.00 0.00 59 1013.7
20260507022508 42 350 2.0 6.0 0.00 0.00 0.00 59 1013.7
20260507022008 42 358 2.0 6.0 0.00 0.00 0.00 59 1013.8
20260507021508 42 0 3.0 6.0 0.00 0.00 0.00 59 1013.5
20260507021008 42 0 3.0 7.0 0.00 0.00 0.00 59 1013.6
20260507020508 42 26 3.0 8.0 0.00 0.00 0.00 59 1013.5
20260507020011 42 347 2.0 7.0 0.00 0.00 0.00 58 1013.5
20260507015508 42 358 2.0 7.0 0.00 0.00 0.00 58 1013.6
20260507015008 42 16 4.0 7.0 0.00 0.00 0.00 58 1013.6
20260507014508 42 9 3.0 6.0 0.00 0.00 0.00 58 1013.6
20260507013508 43 1 2.0 3.0 0.00 0.00 0.00 58 1013.5
20260507012507 43 6 1.0 5.0 0.00 0.00 0.00 58 1013.4
20260507012007 43 333 3.0 5.0 0.00 0.00 0.00 58 1013.5
20260507011508 43 330 1.0 5.0 0.00 0.00 0.00 58 1013.3
20260507011008 43 325 3.0 6.0 0.00 0.00 0.00 58 1013.3
20260507010507 43 319 3.0 5.0 0.00 0.00 0.00 58 1013.3
20260507010012 43 336 2.0 6.0 0.00 0.00 0.00 58 1013.3
20260507005508 43 339 3.0 6.0 0.00 0.00 0.00 58 1013.2
20260507004508 43 148 1.0 2.0 0.00 0.00 0.00 57 1013.2
20260507004008 44 22 2.0 7.0 0.00 0.00 0.00 57 1013.2
20260507003508 44 1 2.0 7.0 0.00 0.00 0.00 57 1013.2
20260507003012 44 322 2.0 7.0 0.00 0.00 0.00 57 1013.2
20260507002507 44 346 2.0 6.0 0.00 0.00 0.00 57 1013.2
20260507002008 44 349 2.0 6.0 0.00 0.00 0.00 57 1013.1
20260507001508 44 350 2.0 5.0 0.00 0.00 0.00 57 1013.1
20260507001007 44 9 2.0 5.0 0.00 0.00 0.00 57 1013.2
20260507000508 44 29 2.0 5.0 0.00 0.00 0.00 57 1013.2
20260507000011 44 2 3.0 5.0 0.00 0.00 0.00 57 1013.2
20260506235508 44 19 2.0 5.0 0.00 0.00 0.00 56 1013.0
20260506235008 44 60 2.0 5.0 0.00 0.00 0.00 56 1013.1
20260506234508 44 44 3.0 7.0 0.00 0.00 0.00 56 1013.1
20260506234008 44 36 2.0 5.0 0.00 0.00 0.00 56 1013.1
20260506233508 44 43 2.0 5.0 0.00 0.00 0.00 56 1013.2
20260506233011 44 20 3.0 8.0 0.00 0.00 0.00 56 1013.1
20260506232508 44 35 4.0 8.0 0.00 0.00 0.00 56 1013.1
20260506232008 44 26 6.0 9.0 0.00 0.00 0.00 56 1013.0
20260506231507 44 46 6.0 9.0 0.00 0.00 0.00 56 1013.0
20260506230507 44 63 4.0 10.0 0.00 0.00 0.00 55 1012.9
20260506230011 44 44 4.0 9.0 0.00 0.00 0.00 55 1012.9
20260506225508 44 64 7.0 12.0 0.00 0.00 0.00 55 1012.8
20260506225007 44 73 4.0 8.0 0.00 0.00 0.00 55 1012.7
20260506224507 45 63 3.0 8.0 0.00 0.00 0.00 55 1012.7
20260506224008 45 56 3.0 9.0 0.00 0.00 0.00 55 1012.6
20260506223508 45 48 6.0 10.0 0.00 0.00 0.00 55 1012.7
20260506223012 45 66 3.0 9.0 0.00 0.00 0.00 54 1012.7
20260506222507 45 43 4.0 9.0 0.00 0.00 0.00 55 1012.6
20260506222007 45 24 4.0 13.0 0.00 0.00 0.00 55 1012.7
20260506221007 45 71 3.0 7.0 0.00 0.00 0.00 55 1012.6
20260506220507 45 35 5.0 12.0 0.00 0.00 0.00 55 1012.6
20260506220011 45 48 5.0 9.0 0.00 0.00 0.00 55 1012.5
20260506215507 45 21 5.0 12.0 0.00 0.00 0.00 55 1012.5
20260506215007 46 51 2.0 13.0 0.00 0.00 0.00 55 1012.6
20260506214508 46 44 3.0 13.0 0.00 0.00 0.00 55 1012.5